SES-4
NORAD 38087 · 2012-007A
PAYLOAD ACTIVE UNKNOWN
§ Identity
- Operator
- —
- Country
- SES
- Launch date
- 2012-02-14
- Launch site
- TYMSC
- Launch vehicle
- —
- Mass (kg)
- —
- RCS (m²)
- 63.35
Purposes: comms
External: N2YO · Heavens-Above · Gunter
§ Orbital elements
Epoch: 2026-09-19T08:18:49.215744Z
- Period
- 1,436.09 min
- Inclination
- 0.0173°
- Eccentricity
- 0.0002361
- Mean motion
- 1.00272140 rev/d
- Perigee alt
- 35,776.5 km
- Apogee alt
- 35,796.5 km
- Semi-major
- 42,164.6 km
- B*
- 0.0000e+0
- RAAN
- 60.1819°
- Arg perigee
- 129.4441°
- Mean anomaly
- 271.3476°
- Rev number
- 5,317
§ Raw data
SES-41 38087U 12007A 26262.34640296 -.00000172 00000+0 00000+0 0 99972 38087 0.0173 60.1819 0002361 129.4441 271.3476 1.00272140 53174
JSON: /api/v1/satellites/38087 · /tle
For live sub-satellite position, see the globe view (requires WebGL).
§ Visibility from observer
Set your observer location to see the next 7 days of passes ≥ 10°. The values pass through the URL so the page stays shareable.
No JS? Fill the form by hand. The geolocation button needs JavaScript.